Showing default

WILDFIRE 7, 57761

Orbit data source: Space-Track

WILDFIRE 7, 57761 is a payload satellite owned by SDA (US) in LEO that was launched on Sat, 02 Sep 2023 UTC via an FALCON 9 launch vehicle from the Air Force Western Test Range (AFWTR). Payload-class satellites include a variety of spacecraft equipped with specific instruments for various scientific and technological missions. These include communications satellites like Starlink; space stations such as the ISS; scientific satellites like the Hubble; Earth observation satellites from companies like Planet Labs, Umbra, and HawkEye 360; GPS; miniature CubeSats for education and research; and military/defense satellites.

Loading next visibility...
Identifier
57761, 2023-133E
Orbit
LEO
Country
Flag of USUS
Related business
Manufacturer
TYVAK/LMSSD
Mission
Operational Defense Communications
Bus & Motor
MAVERICKS, Unknown motor
Mass
~300 kg wet, ~300 kg dry
Launch date (UTC)
2023-09-02 (3 years ago)
Launch vehicle
FALCON 9
Launch site
Air Force Western Test Range (AFWTR)
Object type
Payload
Rocket body
Debris
Shape & HBR
Box + 2 Pan, 1.3 m
Radar Cross Section
0.713 m², Large (>1 m²)

Expand to show TLE details & history
Last TLE update: 3 days ago

TLE from 3 days ago
0 WILDFIRE 7
1 57761U 23133E   26170.95786896  .00000081  00000-0  61697-4 0  9994
2 57761  80.9989   5.2874 0005986  34.0396 326.1143 13.85103384141372
Epoch: 2026-06-19T22:59Z
TLE epoch observation values (Epoch: 2026-06-19T22:59:19.878Z)
Latitude
-0.00002°
Longitude
112.27519°
Altitude
945.059 km
Speed
7.381 km/s
True Right ascension
00h 21m 08s
True Declination
0° 00' 00"
Sunlit
Object was in daylight at epoch
Visualization orbit readout
Latitude
Unknown
Longitude
Unknown
Altitude
Unknown
Speed
Unknown
Apparent Right ascension
Unknown
Apparent Declination
Unknown
Sunlit
N/A
Visualization observer readout
Local Sidereal Time
23:19:25
Azimuth
Unknown
Elevation
Unknown
Doppler factor
Unknown
Orbital elements
Apogee altitude
947.443 km
Perigee altitude
938.678 km
Semi-major axis
7,321.198 km
Eccentricity
0.0006
Inclination
80.9989°
RAAN
5.2874°
Arg. of periapsis
34.0396°
True anomaly
326.07603°
Mean anomaly
326.1143°
Eccentric anomaly
326.09517°
Mean motion
3.46473 °/min
Orbital period
103.9 mins
BSTAR
0.000061697
Loading maneuver chart data...
Computing Atmospheric mass density...
Loading historical data...
Loading historical data...
Loading historical data...
Loading historical data...
Loading historical data...
Loading historical data...
Loading historical data...

Documentation

Showing up to 5 results
|